Location: Clanezzo
(45.7500°N, 9.6000°E)
Time: 05:08:19
(UTC+00:00)

Envisat - Pass Details

Date: 24 January 2022
Orbit: 764 x 765 km, 98.2° (Epoch: 22 May)

Event Time Altitude Azimuth Distance (km) Brightness Sun altitude
Rises 05:30:55 0° 2° (N) 3,241 6.1 -14.1°
Reaches altitude 10° 05:33:35 10° 350° (N) 2,311 5.2 -13.6°
Maximum altitude 05:37:37 25° 297° (WNW) 1,531 4.0 -13.0°
Drops below altitude 10° 05:41:39 10° 244° (WSW) 2,299 5.0 -12.3°
Sets 05:44:18 0° 231° (SW) 3,221 5.9 -11.8°
